Lid_Strength_Index
3 3 3 3 2 2 2 1 1 -0 0 -1 -1 -1 -2 -2 -2 0 3 1 4 7 7 6 6 8 8 8 10 10 9 9 10 12 12 12 13 12 13 12 13 13 14 15 15 17 18 9 9 12 10 9 10 9
2 2 2 2 2 2 2 2 1 0 0 -1 -1 -1 -1 -1 -1 -1 4 1 1 5 7 5 5 5 5 5 7 9 8 10 7 10 10 11 12 11 12 15 10 13 11 12 12 12 8 7 8 7 8 10 9 8
-0 0 0 0 1 1 2 2 1 0 -0 1 -1 -1 -1 -1 -1 -1 4 2 3 6 7 7 8 5 4 4 3 8 8 6 7 6 8 9 12 10 14 12 11 10 8 11 11 9 8 7 6 6 8 8 8 9
-1 -1 -0 -1 -1 -0 -0 1 1 -0 -0 1 -1 -1 -1 -1 -1 -1 3 2 2 5 9 9 6 6 4 4 4 4 5 5 5 6 9 10 12 8 11 11 11 10 9 10 10 8 7 7 7 7 8 8 9 10
-1 -1 -1 -1 -1 -1 -1 -1 -0 -1 -0 1 -1 -1 -1 -1 -1 -1 2 1 1 5 10 11 9 6 5 5 6 5 6 6 7 9 10 11 9 9 9 9 11 8 9 11 11 9 8 7 6 8 9 9 9 10
-1 -1 -1 -1 -1 -1 -1 -1 -1 -0 -0 1 -1 -1 -1 -1 -1 1 7 3 1 2 8 12 8 9 6 6 6 6 6 7 7 8 9 8 7 8 11 12 9 8 7 7 8 7 7 6 7 8 9 9 10 11
-1 -1 -1 -1 -1 -1 -1 -1 -1 -0 0 0 -0 -1 -1 -1 0 5 7 4 0 2 7 11 11 10 8 8 8 7 6 7 7 8 10 9 9 7 10 13 10 8 7 6 6 7 8 6 7 8 9 9 11 12
-1 -1 -1 -1 -1 -0 -1 -1 -0 -0 0 -1 -0 -0 -1 -1 -0 4 3 -0 1 5 7 13 14 11 8 10 10 7 8 8 8 9 8 9 8 8 12 10 8 7 6 6 7 7 7 10 11 10 10 11 11 11
-1 -0 -0 -0 -0 -0 -0 -0 -0 -0 -0 -0 -0 -1 1 3 6 5 0 -0 3 5 10 12 14 14 8 8 8 8 6 10 7 10 10 8 10 12 10 9 9 11 11 12 13 13 13 12 11 12 12 12 11 12
-0 -0 -0 -0 0 1 -0 -0 -0 -0 -0 -0 1 6 8 5 0 1 3 7 7 7 10 12 14 12 9 9 9 9 8 9 11 10 8 10 11 8 15 18 18 19 18 18 16 14 14 14 13 13 15 16 15 15
-0 -0 -0 -0 -0 -0 -0 -0 -0 -0 -0 5 7 9 4 1 5 7 10 10 10 12 10 12 12 12 9 11 11 9 11 11 14 11 11 12 13 13 19 21 20 21 20 20 20 18 18 18 16 16 18 19 19 19
-0 0 -0 0 -0 -0 -0 0 -0 3 4 5 5 4 5 7 9 11 13 12 14 14 14 12 11 10 10 9 10 11 12 13 15 12 12 14 14 24 24 24 22 23 23 22 22 22 21 22 22 19 21 22 22 22
-0 -0 -0 -0 -0 -0 -0 -0 -0 0 1 4 6 8 10 12 14 15 17 16 15 16 15 12 12 10 9 8 11 11 14 14 14 14 15 14 25 26 27 26 26 24 24 23 23 23 24 24 24 25 24 24 24 24
-0 -0 -0 -0 -0 -0 -0 -1 -1 1 4 7 10 14 13 15 14 16 15 16 17 15 12 11 11 10 10 10 10 13 12 14 16 19 16 26 27 28 27 27 27 27 26 25 25 25 26 26 27 27 26 25 26 27
-0 -0 -0 -0 -0 -0 -0 1 4 10 9 11 11 15 16 24 25 26 25 22 23 20 16 13 13 9 11 10 10 13 16 17 17 17 24 27 28 29 27 28 28 28 27 27 27 26 26 27 28 28 27 26 26 26
-0 -0 1 -0 -1 0 2 6 10 12 19 20 25 21 24 21 23 26 27 26 23 21 20 16 13 12 13 12 15 14 16 17 19 28 28 28 28 28 28 28 28 27 28 27 27 27 27 28 28 28 27 27 27 27
1 3 0 1 2 4 4 11 14 19 23 25 28 29 29 28 29 29 29 26 23 23 18 16 16 16 15 18 20 23 20 27 28 29 28 28 29 29 28 27 27 27 27 27 27 27 27 26 26 27 28 28 28 27
4 2 1 2 7 8 14 14 17 20 26 25 27 29 29 29 28 28 27 25 24 22 20 18 19 19 16 19 21 28 28 28 28 27 27 27 27 28 27 28 28 27 27 28 28 27 26 26 27 28 27 27 27 28
5 5 3 4 8 13 15 17 17 24 25 25 25 25 27 27 26 26 26 24 24 24 23 22 21 22 27 32 31 31 30 28 28 27 27 27 27 28 28 27 28 28 28 28 28 29 29 29 29 27 27 27 28 27
5 5 5 6 9 17 21 20 18 22 24 24 23 26 26 27 28 29 28 27 26 29 30 31 32 34 33 31 31 30 30 28 27 28 28 27 27 28 29 28 28 27 28 28 29 28 29 30 30 30 30 29 30 31
10 10 10 13 19 20 22 22 23 24 23 25 24 25 27 28 31 32 30 28 29 32 33 34 34 33 33 33 31 31 30 28 27 27 27 29 28 27 28 28 28 29 29 29 30 31 31 32 31 31 31 31 31 31
15 11 19 17 19 22 23 23 23 22 26 27 27 29 31 31 32 32 30 32 33 33 33 33 34 34 35 35 34 32 30 31 28 26 27 27 29 29 30 30 29 31 32 32 31 32 32 31 31 31 31 32 31 31
16 17 22 23 23 25 27 24 27 27 29 27 27 31 32 32 30 27 34 35 34 31 34 35 36 36 35 34 34 33 32 29 30 29 30 31 31 31 31 32 30 31 32 33 32 32 32 32 32 32 31 32 32 32
20 28 31 32 30 33 32 32 29 29 29 30 29 30 32 35 29 33 37 39 35 33 35 36 37 35 33 34 33 34 32 29 30 30 30 31 33 34 33 34 33 34 33 32 32 33 33 33 33 32 33 33 34 34
24 36 32 37 35 35 37 37 35 31 33 37 35 35 35 34 35 37 37 38 36 37 35 35 34 33 34 33 31 32 31 29 30 32 32 31 33 33 34 33 34 35 35 32 33 34 35 35 35 35 35 36 37 37
38 38 39 41 38 38 40 40 40 39 38 36 38 36 37 36 35 37 35 34 34 35 34 33 32 32 32 30 31 31 32 31 29 31 32 31 31 30 31 32 32 33 37 37 37 36 36 37 38 39 37 37 37 38
41 42 39 39 38 37 39 40 40 39 40 39 39 37 36 38 40 37 32 31 32 32 31 31 31 30 31 32 32 32 33 32 32 32 33 33 33 33 32 32 33 33 37 38 38 38 37 38 38 38 38 37 37 37
40 42 42 41 42 46 47 47 46 44 42 38 39 39 40 39 38 36 33 32 36 35 33 32 31 31 31 32 32 32 33 33 33 33 33 33 34 34 35 35 34 33 35 37 38 39 41 40 39 39 38 37 35 34
40 41 41 44 45 43 44 44 45 43 38 45 42 40 40 37 39 42 37 35 36 36 37 35 33 32 32 32 32 33 32 32 32 31 30 30 31 32 33 35 35 36 38 40 36 30 32 34 35 34 34 34 33 33
38 42 42 45 43 43 42 41 45 44 45 40 39 36 37 38 38 34 36 37 37 38 40 39 37 33 31 31 31 31 32 32 31 31 30 30 31 33 36 37 37 38 39 42 38 38 35 35 36 38 36 35 34 34
37 42 41 41 39 38 39 39 39 38 37 38 39 41 40 38 32 31 31 32 37 41 40 39 38 34 32 31 32 31 31 32 33 33 33 34 37 40 40 38 38 40 43 42 41 41 39 38 38 38 37 37 36 35
37 41 38 37 36 37 38 39 37 35 35 35 37 40 39 38 35 34 34 39 42 40 36 34 33 31 31 31 31 31 31 33 34 34 35 36 37 38 38 39 41 43 41 39 38 38 38 39 37 36 36 36 35 35
40 38 38 37 37 36 38 39 35 35 37 37 36 39 41 38 34 33 34 34 34 32 32 32 32 34 32 32 34 35 33 36 38 31 29 30 31 32 37 38 37 36 36 36 35 35 36 36 36 35 35 35 34 33